CW9792 Weather Reports


time (UTC)temp
F
wind
direction
speed
knots
gust
knots
rain 1hr
in
rain 24hr
in
rain mn
in
humidity
%
barometer
mb
20260903190515 95 250 0.0 0.0 0.00 0.00 0.00 33 1014.7
20260903190008 95 242 0.0 0.0 0.00 0.00 0.00 34 1014.7
20260903185508 96 253 0.0 0.0 0.00 0.00 0.00 33 1014.8
20260903185008 95 267 0.0 0.9 0.00 0.00 0.00 35 1014.8
20260903184507 96 230 0.0 0.0 0.00 0.00 0.00 33 1014.8
20260903184007 95 178 0.0 0.0 0.00 0.00 0.00 35 1014.9
20260903183506 95 282 0.0 0.9 0.00 0.00 0.00 35 1014.9
20260903183007 95 200 0.0 0.9 0.00 0.00 0.00 35 1014.9
20260903182508 95 257 0.0 0.0 0.00 0.00 0.00 35 1014.9
20260903182005 96 176 0.0 0.0 0.00 0.00 0.00 34 1015.0
20260903181504 96 232 0.0 0.0 0.00 0.00 0.00 34 1015.0
20260903181004 96 236 0.0 0.0 0.00 0.00 0.00 34 1015.0
20260903180508 95 188 0.0 0.0 0.00 0.00 0.00 34 1015.1
20260903180012 95 211 0.0 0.0 0.00 0.00 0.00 34 1015.2
20260903175510 95 173 0.0 0.0 0.00 0.00 0.00 34 1015.2
20260903175004 95 225 0.0 0.0 0.00 0.00 0.00 34 1015.3
20260903174503 96 222 0.0 0.0 0.00 0.00 0.00 35 1015.4
20260903174006 95 223 0.0 0.0 0.00 0.00 0.00 35 1015.4
20260903173502 95 217 0.0 0.0 0.00 0.00 0.00 35 1015.4
20260903173002 95 290 0.0 0.0 0.00 0.00 0.00 36 1015.5
20260903172501 94 313 0.0 0.0 0.00 0.00 0.00 36 1015.5
20260903172002 94 294 0.0 0.0 0.00 0.00 0.00 37 1015.6
20260903171504 94 319 0.0 0.0 0.00 0.00 0.00 37 1015.6
20260903171001 95 286 0.0 0.0 0.00 0.00 0.00 38 1015.7
20260903170600 95 263 0.0 0.0 0.00 0.00 0.00 37 1015.7
20260903170105 95 198 0.0 0.9 0.00 0.00 0.00 39 1015.7
20260903165559 94 173 0.0 0.9 0.00 0.00 0.00 38 1015.7
20260903165101 94 240 0.0 0.0 0.00 0.00 0.00 39 1015.8
20260903164602 93 276 0.0 0.0 0.00 0.00 0.00 39 1015.8
20260903164059 93 313 0.0 0.0 0.00 0.00 0.00 38 1015.8
20260903163558 93 275 0.0 0.0 0.00 0.00 0.00 40 1015.9
20260903163058 94 281 0.0 0.0 0.00 0.00 0.00 38 1016.0
20260903162559 93 298 0.0 0.0 0.00 0.00 0.00 38 1016.0
20260903162056 94 300 0.0 0.0 0.00 0.00 0.00 39 1016.0
20260903161556 94 277 0.0 0.9 0.00 0.00 0.00 39 1016.1
20260903161054 94 265 0.0 0.9 0.00 0.00 0.00 39 1016.1
20260903160554 92 279 0.0 0.0 0.00 0.00 0.00 41 1016.1
20260903160055 92 278 0.0 0.9 0.00 0.00 0.00 40 1016.1
20260903155553 92 229 0.0 0.9 0.00 0.00 0.00 41 1016.1
20260903155052 92 300 0.0 0.0 0.00 0.00 0.00 41 1016.1
20260903154558 92 283 0.0 0.0 0.00 0.00 0.00 43 1016.2
20260903154051 91 267 0.0 0.0 0.00 0.00 0.00 42 1016.3
20260903153550 91 280 0.0 0.0 0.00 0.00 0.00 41 1016.2
20260903153106 91 286 0.0 0.0 0.00 0.00 0.00 43 1016.2
20260903152549 91 290 0.0 0.0 0.00 0.00 0.00 44 1016.2
20260903152051 91 288 0.0 0.0 0.00 0.00 0.00 43 1016.2
20260903151548 90 282 0.0 0.0 0.00 0.00 0.00 43 1016.2
20260903151048 90 272 0.0 0.0 0.00 0.00 0.00 44 1016.2
20260903150547 90 242 0.0 0.0 0.00 0.00 0.00 43 1016.2
20260903150101 90 268 0.0 0.0 0.00 0.00 0.00 43 1016.3
20260903145548 90 269 0.0 0.0 0.00 0.00 0.00 43 1016.2
20260903145046 90 269 0.0 0.0 0.00 0.00 0.00 45 1016.2
20260903144546 90 200 0.0 0.0 0.00 0.00 0.00 46 1016.2
20260903144049 90 233 0.0 0.0 0.00 0.00 0.00 46 1016.1
20260903143546 90 194 0.0 0.0 0.00 0.00 0.00 46 1016.2
20260903143055 89 172 0.0 0.0 0.00 0.00 0.00 48 1016.2
20260903142543 89 172 0.0 0.0 0.00 0.00 0.00 47 1016.2
20260903142041 89 171 0.0 0.0 0.00 0.00 0.00 48 1016.2
20260903141544 88 171 0.0 0.0 0.00 0.00 0.00 50 1016.2
20260903141038 87 171 0.0 0.0 0.00 0.00 0.00 50 1016.3
20260903140537 87 171 0.0 0.0 0.00 0.00 0.00 51 1016.3
20260903140037 86 171 0.0 0.0 0.00 0.00 0.00 54 1016.3
20260903135534 85 171 0.0 0.0 0.00 0.00 0.00 54 1016.3
20260903135033 85 171 0.0 0.0 0.00 0.00 0.00 55 1016.4
20260903134532 84 171 0.0 0.0 0.00 0.00 0.00 55 1016.4
20260903134029 83 171 0.0 0.0 0.00 0.00 0.00 55 1016.5
20260903133528 83 192 0.0 0.0 0.00 0.00 0.00 56 1016.5
20260903133028 82 192 0.0 0.0 0.00 0.00 0.00 56 1016.5
20260903132526 82 192 0.0 0.0 0.00 0.00 0.00 56 1016.5
20260903132024 81 192 0.0 0.0 0.00 0.00 0.00 56 1016.5
20260903131523 80 192 0.0 0.0 0.00 0.00 0.00 56 1016.5
20260903131025 80 192 0.0 0.0 0.00 0.00 0.00 57 1016.6
20260903130523 79 196 0.0 0.0 0.00 0.00 0.00 58 1016.6
20260903130019 78 196 0.0 0.0 0.00 0.00 0.00 59 1016.7
20260903125518 77 196 0.0 0.0 0.00 0.00 0.00 60 1016.8
20260903125021 76 196 0.0 0.0 0.00 0.00 0.00 61 1016.8
20260903124518 75 196 0.0 0.0 0.00 0.00 0.00 62 1016.8
20260903124020 75 196 0.0 0.0 0.00 0.00 0.00 63 1016.7
20260903123517 74 196 0.0 0.0 0.00 0.00 0.00 64 1016.7
20260903123017 74 196 0.0 0.0 0.00 0.00 0.00 65 1016.7
20260903122516 73 196 0.0 0.0 0.00 0.00 0.00 65 1016.8
20260903122015 73 196 0.0 0.0 0.00 0.00 0.00 65 1016.8
20260903121516 73 196 0.0 0.0 0.00 0.00 0.00 66 1016.8
20260903121015 72 196 0.0 0.0 0.00 0.00 0.00 65 1016.7
20260903120515 72 196 0.0 0.0 0.00 0.00 0.00 65 1016.7
20260903120015 72 197 0.0 0.0 0.00 0.00 0.00 66 1016.7
20260903115514 72 197 0.0 0.0 0.00 0.00 0.00 66 1016.7
20260903115014 71 197 0.0 0.0 0.00 0.00 0.00 66 1016.7
20260903114514 71 197 0.0 0.0 0.00 0.00 0.00 66 1016.6
20260903114013 71 197 0.0 0.0 0.00 0.00 0.00 66 1016.6
20260903113512 71 197 0.0 0.0 0.00 0.00 0.00 66 1016.5
20260903113012 71 197 0.0 0.0 0.00 0.00 0.00 66 1016.4
20260903112512 71 197 0.0 0.0 0.00 0.00 0.00 66 1016.4
20260903112011 71 197 0.0 0.0 0.00 0.00 0.00 66 1016.3
20260903111514 71 197 0.0 0.0 0.00 0.00 0.00 65 1016.3
20260903111010 71 197 0.0 0.0 0.00 0.00 0.00 65 1016.2
20260903110511 71 197 0.0 0.0 0.00 0.00 0.00 65 1016.2
20260903110010 71 197 0.0 0.0 0.00 0.00 0.00 65 1016.2
20260903105509 71 197 0.0 0.0 0.00 0.00 0.00 65 1016.2
20260903105009 71 197 0.0 0.0 0.00 0.00 0.00 65 1016.2
20260903104514 71 197 0.0 0.0 0.00 0.00 0.00 65 1016.1
20260903104007 71 197 0.0 0.0 0.00 0.00 0.00 64 1016.1
20260903103508 72 197 0.0 0.0 0.00 0.00 0.00 64 1016.1
20260903103007 72 197 0.0 0.0 0.00 0.00 0.00 64 1016.1
20260903102506 72 197 0.0 0.0 0.00 0.00 0.00 64 1016.0
20260903102006 72 197 0.0 0.0 0.00 0.00 0.00 64 1016.1
20260903101505 72 197 0.0 0.0 0.00 0.00 0.00 64 1016.0
20260903101004 72 197 0.0 0.0 0.00 0.00 0.00 64 1016.1
20260903100504 72 197 0.0 0.0 0.00 0.00 0.00 64 1016.0
20260903100004 72 197 0.0 0.0 0.00 0.00 0.00 64 1015.9
20260903095503 72 197 0.0 0.0 0.00 0.00 0.00 64 1015.9
20260903095004 72 197 0.0 0.0 0.00 0.00 0.00 64 1015.9
20260903094503 72 197 0.0 0.0 0.00 0.00 0.00 64 1015.9
20260903094004 72 197 0.0 0.0 0.00 0.00 0.00 64 1015.9
20260903093503 72 197 0.0 0.0 0.00 0.00 0.00 64 1015.9
20260903093005 72 197 0.0 0.0 0.00 0.00 0.00 64 1015.8
20260903092501 72 197 0.0 0.0 0.00 0.00 0.00 64 1015.8
20260903092001 72 197 0.0 0.0 0.00 0.00 0.00 64 1015.8
20260903091701 72 197 0.0 0.0 0.00 0.00 0.00 64 1015.8
20260903091100 72 197 0.0 0.0 0.00 0.00 0.00 64 1015.7
20260903090602 72 197 0.0 0.0 0.00 0.00 0.00 64 1015.8
20260903090059 72 197 0.0 0.0 0.00 0.00 0.00 64 1015.7
20260903085559 72 197 0.0 0.0 0.00 0.00 0.00 64 1015.8
20260903085058 73 197 0.0 0.0 0.00 0.00 0.00 64 1015.7
20260903084559 73 197 0.0 0.0 0.00 0.00 0.00 63 1015.7
20260903084058 73 197 0.0 0.0 0.00 0.00 0.00 63 1015.7
20260903083600 73 197 0.0 0.0 0.00 0.00 0.00 63 1015.7
20260903083103 73 197 0.0 0.0 0.00 0.00 0.00 63 1015.7
20260903082555 73 197 0.0 0.0 0.00 0.00 0.00 63 1015.7
20260903082057 73 197 0.0 0.0 0.00 0.00 0.00 63 1015.6
20260903081613 73 197 0.0 0.0 0.00 0.00 0.00 63 1015.6
20260903081053 74 197 0.0 0.0 0.00 0.00 0.00 63 1015.6
20260903080552 74 197 0.0 0.0 0.00 0.00 0.00 62 1015.5
20260903080052 74 197 0.0 0.0 0.00 0.00 0.00 62 1015.5
20260903075552 74 197 0.0 0.0 0.00 0.00 0.00 62 1015.5
20260903075051 74 197 0.0 0.0 0.00 0.00 0.00 62 1015.5
20260903074554 74 197 0.0 0.0 0.00 0.00 0.00 62 1015.5
20260903074050 74 197 0.0 0.0 0.00 0.00 0.00 62 1015.5
20260903073550 74 197 0.0 0.0 0.00 0.00 0.00 62 1015.4
20260903073049 75 197 0.0 0.0 0.00 0.00 0.00 62 1015.4
20260903072548 75 197 0.0 0.0 0.00 0.00 0.00 61 1015.4
20260903072048 75 197 0.0 0.0 0.00 0.00 0.00 61 1015.4
20260903071553 75 197 0.0 0.0 0.00 0.00 0.00 61 1015.4
20260903071046 75 197 0.0 0.0 0.00 0.00 0.00 61 1015.3
20260903070547 75 197 0.0 0.0 0.00 0.00 0.00 61 1015.3
20260903070046 75 197 0.0 0.0 0.00 0.00 0.00 60 1015.2
20260903065546 75 197 0.0 0.0 0.00 0.00 0.00 61 1015.2
20260903065045 75 197 0.0 0.0 0.00 0.00 0.00 61 1015.2
20260903064550 75 197 0.0 0.0 0.00 0.00 0.00 61 1015.2
20260903064045 75 197 0.0 0.0 0.00 0.00 0.00 61 1015.1
20260903063545 76 197 0.0 0.0 0.00 0.00 0.00 61 1015.2
20260903063049 76 197 0.0 0.0 0.00 0.00 0.00 61 1015.2
20260903062544 76 197 0.0 0.0 0.00 0.00 0.00 61 1015.3
20260903062044 75 197 0.0 0.0 0.00 0.00 0.00 61 1015.3
20260903061543 76 197 0.0 0.0 0.00 0.00 0.00 61 1015.3
20260903061042 76 197 0.0 0.0 0.00 0.00 0.00 61 1015.3
20260903060542 76 197 0.0 0.0 0.00 0.00 0.00 61 1015.2
20260903060044 76 197 0.0 0.0 0.00 0.00 0.00 61 1015.2
20260903055544 76 197 0.0 0.0 0.00 0.00 0.00 61 1015.2
20260903055041 76 198 0.0 0.0 0.00 0.00 0.00 61 1015.1
20260903054541 76 198 0.0 0.0 0.00 0.00 0.00 60 1015.1
20260903054041 76 198 0.0 0.0 0.00 0.00 0.00 60 1015.1
20260903053540 76 198 0.0 0.0 0.00 0.00 0.00 60 1015.1
20260903053041 76 198 0.0 0.0 0.00 0.00 0.00 60 1015.1
20260903052539 76 198 0.0 0.0 0.00 0.00 0.00 61 1015.2
20260903052040 76 198 0.0 0.0 0.00 0.00 0.00 61 1015.1
20260903051538 76 198 0.0 0.0 0.00 0.00 0.00 60 1015.1
20260903051041 76 198 0.0 0.0 0.00 0.00 0.00 61 1015.2
20260903050538 77 198 0.0 0.0 0.00 0.00 0.00 61 1015.2
20260903050045 77 198 0.0 0.0 0.00 0.00 0.00 61 1015.1
20260903045537 77 198 0.0 0.0 0.00 0.00 0.00 61 1015.2
20260903045036 77 198 0.0 0.0 0.00 0.00 0.00 61 1015.2
20260903044544 77 198 0.0 0.0 0.00 0.00 0.00 60 1015.2
20260903044036 77 198 0.0 0.0 0.00 0.00 0.00 60 1015.3
20260903043539 77 198 0.0 0.0 0.00 0.00 0.00 61 1015.2
20260903043035 77 198 0.0 0.0 0.00 0.00 0.00 61 1015.2
20260903042535 77 198 0.0 0.0 0.00 0.00 0.00 61 1015.2
20260903042035 77 198 0.0 0.0 0.00 0.00 0.00 61 1015.2
20260903041542 77 198 0.0 0.0 0.00 0.00 0.00 61 1015.2
20260903041033 77 198 0.0 0.0 0.00 0.00 0.00 61 1015.2
20260903040532 77 198 0.0 0.0 0.00 0.00 0.00 61 1015.2
20260903040031 77 198 0.0 0.0 0.00 0.00 0.00 61 1015.2
20260903035533 77 198 0.0 0.0 0.00 0.00 0.00 61 1015.2
20260903035031 77 198 0.0 0.0 0.00 0.00 0.00 61 1015.2
20260903034536 77 198 0.0 0.0 0.00 0.00 0.00 61 1015.2
20260903034031 77 199 0.0 0.0 0.00 0.00 0.00 61 1015.2
20260903033530 77 199 0.0 0.0 0.00 0.00 0.00 61 1015.2
20260903033032 77 199 0.0 0.0 0.00 0.00 0.00 61 1015.2
20260903032532 77 199 0.0 0.0 0.00 0.00 0.00 61 1015.2
20260903032030 77 199 0.0 0.0 0.00 0.00 0.00 62 1015.2
20260903031535 77 203 0.0 0.0 0.00 0.00 0.00 62 1015.2
20260903031030 77 203 0.0 0.0 0.00 0.00 0.00 62 1015.2
20260903030530 77 203 0.0 0.0 0.00 0.00 0.00 62 1015.2
20260903030031 77 203 0.0 0.0 0.00 0.00 0.00 62 1015.2
20260903025532 77 204 0.0 0.0 0.00 0.00 0.00 62 1015.2
20260903025029 77 204 0.0 0.0 0.00 0.00 0.00 62 1015.2
20260903024529 77 205 0.0 0.0 0.00 0.00 0.00 62 1015.2
20260903024033 77 205 0.0 0.0 0.00 0.00 0.00 62 1015.3
20260903023535 78 205 0.0 0.0 0.00 0.00 0.00 63 1015.3
20260903023032 78 205 0.0 0.0 0.00 0.00 0.00 62 1015.3
20260903022528 78 211 0.0 0.0 0.00 0.00 0.00 62 1015.3
20260903022028 78 211 0.0 0.0 0.00 0.00 0.00 62 1015.3
20260903021528 78 211 0.0 0.0 0.00 0.00 0.00 62 1015.3
20260903021029 78 211 0.0 0.0 0.00 0.00 0.00 62 1015.3
20260903020529 78 211 0.0 0.0 0.00 0.00 0.00 62 1015.3
20260903020054 79 211 0.0 0.0 0.00 0.00 0.00 62 1015.3
20260903015528 79 211 0.0 0.0 0.00 0.00 0.00 62 1015.2
20260903015027 79 211 0.0 0.0 0.00 0.00 0.00 62 1015.2
20260903014527 80 211 0.0 0.0 0.00 0.00 0.00 61 1015.3
20260903014028 80 211 0.0 0.0 0.00 0.00 0.00 60 1015.2
20260903013527 81 211 0.0 0.0 0.00 0.00 0.00 59 1015.2
20260903013026 81 211 0.0 0.0 0.00 0.00 0.00 59 1015.1
20260903012526 81 211 0.0 0.0 0.00 0.00 0.00 60 1015.1
20260903012029 81 211 0.0 0.0 0.00 0.00 0.00 59 1015.0
20260903011526 82 211 0.0 0.0 0.00 0.00 0.00 58 1014.9
20260903011025 82 211 0.0 0.0 0.00 0.00 0.00 57 1014.9
20260903010525 82 211 0.0 0.0 0.00 0.00 0.00 58 1014.8
20260903010026 83 211 0.0 0.0 0.00 0.00 0.00 58 1014.8
20260903005524 83 211 0.0 0.0 0.00 0.00 0.00 57 1014.8
20260903005028 84 211 0.0 0.0 0.00 0.00 0.00 57 1014.8
20260903004525 84 211 0.0 0.0 0.00 0.00 0.00 56 1014.8
20260903004028 85 211 0.0 0.0 0.00 0.00 0.00 55 1014.7
20260903003525 85 211 0.0 0.0 0.00 0.00 0.00 55 1014.7
20260903003024 86 211 0.0 0.0 0.00 0.00 0.00 54 1014.7
20260903002524 86 211 0.0 0.0 0.00 0.00 0.00 53 1014.7
20260903002026 87 211 0.0 0.0 0.00 0.00 0.00 50 1014.7
20260903001532 88 211 0.0 0.0 0.00 0.00 0.00 51 1014.7
20260903001023 89 211 0.0 0.0 0.00 0.00 0.00 49 1014.6
20260903000523 89 211 0.0 0.0 0.00 0.00 0.00 48 1014.6
20260903000023 89 211 0.0 0.0 0.00 0.00 0.00 48 1014.6
20260902235527 90 211 0.0 0.0 0.00 0.00 0.00 47 1014.7
20260902235023 91 211 0.0 0.0 0.00 0.00 0.00 46 1014.7
20260902234523 92 211 0.0 0.0 0.00 0.00 0.00 46 1014.7
20260902234027 92 211 0.0 0.0 0.00 0.00 0.00 45 1014.7
20260902233522 93 211 0.0 0.0 0.00 0.00 0.00 42 1014.7
20260902233022 94 211 0.0 0.0 0.00 0.00 0.00 43 1014.7
20260902232525 94 211 0.0 0.0 0.00 0.00 0.00 42 1014.7
20260902232020 95 211 0.0 0.0 0.00 0.00 0.00 39 1014.7
20260902231520 95 211 0.0 0.0 0.00 0.00 0.00 36 1014.7
20260902231020 95 211 0.0 0.0 0.00 0.00 0.00 36 1014.8
20260902230519 96 211 0.0 0.0 0.00 0.00 0.00 35 1014.8
20260902230018 97 211 0.0 0.0 0.00 0.00 0.00 34 1014.9
20260902225519 97 211 0.0 0.0 0.00 0.00 0.00 34 1014.9
20260902225021 96 211 0.0 0.0 0.00 0.00 0.00 34 1014.9
20260902224519 96 211 0.0 0.0 0.00 0.00 0.00 34 1014.9
20260902224020 97 211 0.0 0.0 0.00 0.00 0.00 33 1014.9
20260902223516 97 211 0.0 0.0 0.00 0.00 0.00 33 1015.0
20260902223017 96 211 0.0 0.0 0.00 0.00 0.00 34 1015.0
20260902222518 96 211 0.0 0.0 0.00 0.00 0.00 35 1015.0
20260902222017 96 211 0.0 0.9 0.00 0.00 0.00 35 1015.1
20260902221532 96 211 0.0 0.9 0.00 0.00 0.00 34 1015.1
20260902221017 97 223 0.0 0.0 0.00 0.00 0.00 34 1015.2
20260902220515 96 224 0.0 0.0 0.00 0.00 0.00 34 1015.2
20260902220013 95 228 0.0 0.0 0.00 0.00 0.00 35 1015.2
20260902215516 95 261 0.0 0.0 0.00 0.00 0.00 36 1015.2
20260902215013 95 273 0.0 0.0 0.00 0.00 0.00 35 1015.2
20260902214514 95 268 0.0 0.0 0.00 0.00 0.00 34 1015.2
20260902214014 95 181 0.0 0.0 0.00 0.00 0.00 34 1015.2
20260902213514 96 171 0.0 0.0 0.00 0.00 0.00 33 1015.2
20260902213013 96 214 0.0 0.9 0.00 0.00 0.00 34 1015.2
20260902212511 96 211 0.0 0.9 0.00 0.00 0.00 34 1015.3
20260902212011 96 205 0.0 0.0 0.00 0.00 0.00 33 1015.3
20260902211511 97 271 0.0 0.0 0.00 0.00 0.00 33 1015.4
20260902211011 98 240 0.0 0.0 0.00 0.00 0.00 32 1015.4
20260902210513 98 269 0.0 0.0 0.00 0.00 0.00 32 1015.4
20260902210010 97 184 0.0 0.0 0.00 0.00 0.00 33 1015.4
20260902205509 96 209 0.0 0.9 0.00 0.00 0.00 33 1015.5
20260902205009 97 225 0.0 0.9 0.00 0.00 0.00 32 1015.5
20260902204510 96 335 0.0 0.0 0.00 0.00 0.00 35 1015.4
20260902204007 95 265 0.0 0.0 0.00 0.00 0.00 35 1015.5
20260902203506 95 289 0.0 0.0 0.00 0.00 0.00 36 1015.5
20260902203007 95 284 0.0 0.0 0.00 0.00 0.00 34 1015.6
20260902202505 97 276 0.0 0.0 0.00 0.00 0.00 34 1015.7
20260902202004 96 314 0.0 0.0 0.00 0.00 0.00 35 1015.8
20260902201505 96 289 0.0 0.0 0.00 0.00 0.00 34 1015.8
20260902201004 95 219 0.0 0.0 0.00 0.00 0.00 35 1015.8
20260902200504 94 219 0.0 0.0 0.00 0.00 0.00 35 1016.0
20260902200002 94 247 0.0 0.0 0.00 0.00 0.00 37 1016.1
20260902195504 95 267 0.0 0.0 0.00 0.00 0.00 35 1016.2
20260902195002 95 232 0.0 0.9 0.00 0.00 0.00 35 1016.2
20260902194501 94 171 0.0 0.9 0.00 0.00 0.00 36 1016.2
20260902194002 95 248 0.0 0.0 0.00 0.00 0.00 36 1016.3
20260902193603 95 240 0.0 0.0 0.00 0.00 0.00 34 1016.2
20260902193101 96 278 0.0 0.0 0.00 0.00 0.00 34 1016.3
20260902192559 95 330 0.0 0.0 0.00 0.00 0.00 35 1016.3
20260902192059 94 260 0.0 0.0 0.00 0.00 0.00 36 1016.3
20260902191605 94 302 0.0 0.0 0.00 0.00 0.00 35 1016.5
20260902191058 94 294 0.0 0.0 0.00 0.00 0.00 34 1016.6